Location: Downe
(51.3167°N, 0.0500°E)
Time: 03:24:28
(UTC+00:00)

Cosmos 2237 Rocket - Pass Details

Date: 17 November 2019
Orbit: 834 x 851 km, 71.0° (Epoch: 07 December)

Event Time Altitude Azimuth Distance (km) Brightness Sun altitude
Exits shadow 04:50:52 - 344° (NNW) 2,658 4.6 -23.0°
Reaches altitude 10° 04:51:37 10° 350° (N) 2,488 4.5 -22.9°
Maximum altitude 04:55:03 16° 27° (NNE) 2,086 4.5 -22.3°
Drops below altitude 10° 04:58:29 10° 64° (ENE) 2,478 5.5 -21.8°
Sets 05:01:58 0° 86° (E) 3,407 6.9 -21.3°
